Location: Unspecified
(0.0000°N, 0.0000°E)
Time: 17:54:14
(UTC+00:00)

STARLINK 1057 - Pass Details

Date: 17 January 2020
Orbit: 437 x 438 km, 53.0° (Epoch: 18 January)

Event Time Altitude Azimuth Distance (km) Brightness Sun altitude
Rises 05:17:11 0° 206° (SSW) 2,410 6.9 -12.3°
Maximum altitude 05:22:42 49° 124° (SE) 567 4.2 -11.0°
Drops below altitude 10° 05:26:02 10° 48° (NE) 1,532 6.3 -10.2°
Sets 05:28:11 0° 42° (NE) 2,397 7.2 -9.7°
